CW2014 Weather Reports


time (UTC)temp
C
wind
direction
speed
KPH
gust
KPH
rain 1hr
cm
rain 24hr
cm
rain mn
cm
humidity
%
barometer
mb
20260902192031 37 214 6.4 12.9 0.00 0.00 0.00 35 1012.3
20260902191552 37 224 4.8 14.5 0.00 0.00 0.00 35 1012.5
20260902191029 37 161 4.8 14.5 0.00 0.00 0.00 35 1012.5
20260902190525 37 188 3.2 16.1 0.00 0.00 0.00 35 1012.5
20260902190044 37 189 4.8 16.1 0.00 0.00 0.00 36 1012.7
20260902185525 36 218 1.6 11.3 0.00 0.00 0.00 38 1012.6
20260902185026 36 301 1.6 11.3 0.00 0.00 0.00 37 1012.8
20260902184609 36 300 1.6 12.9 0.00 0.00 0.00 37 1012.9
20260902184030 36 171 4.8 12.9 0.00 0.00 0.00 38 1012.9
20260902183524 36 171 4.8 12.9 0.00 0.00 0.00 39 1013.1
20260902183049 36 158 3.2 14.5 0.00 0.00 0.00 39 1013.1
20260902182527 36 169 3.2 16.1 0.00 0.00 0.00 39 1013.2
20260902182029 36 148 4.8 16.1 0.00 0.00 0.00 39 1013.3
20260902181549 36 0 3.2 14.5 0.00 0.00 0.00 38 1013.4
20260902181026 36 190 6.4 14.5 0.00 0.00 0.00 38 1013.4
20260902180525 36 208 1.6 12.9 0.00 0.00 0.00 39 1013.4
20260902180046 36 207 4.8 12.9 0.00 0.00 0.00 40 1013.5
20260902175523 35 287 4.8 12.9 0.00 0.00 0.00 40 1013.4
20260902175026 35 250 1.6 9.7 0.00 0.00 0.00 40 1013.4
20260902174554 35 192 1.6 9.7 0.00 0.00 0.00 40 1013.4
20260902174029 35 224 1.6 11.3 0.00 0.00 0.00 39 1013.5
20260902173525 36 302 3.2 14.5 0.00 0.00 0.00 39 1013.6
20260902173049 35 0 1.6 14.5 0.00 0.00 0.00 40 1013.6
20260902172529 35 217 4.8 12.9 0.00 0.00 0.00 41 1013.7
20260902172026 35 0 0.0 11.3 0.00 0.00 0.00 41 1013.8
20260902171549 35 252 3.2 9.7 0.00 0.00 0.00 41 1013.7
20260902171025 35 199 1.6 9.7 0.00 0.00 0.00 41 1013.7
20260902170526 35 227 1.6 8.0 0.00 0.00 0.00 42 1013.7
20260902170047 34 261 1.6 8.0 0.00 0.00 0.00 42 1013.7
20260902165524 35 281 1.6 11.3 0.00 0.00 0.00 42 1013.5
20260902165024 35 218 1.6 11.3 0.00 0.00 0.00 43 1013.7
20260902164552 35 116 3.2 11.3 0.00 0.00 0.00 43 1013.6
20260902164024 34 197 1.6 9.7 0.00 0.00 0.00 44 1013.5
20260902163524 34 175 1.6 6.4 0.00 0.00 0.00 45 1013.5
20260902163101 33 74 1.6 6.4 0.00 0.00 0.00 48 1013.5
20260902162523 33 177 1.6 8.0 0.00 0.00 0.00 48 1013.5
20260902162028 33 284 1.6 8.0 0.00 0.00 0.00 49 1013.5
20260902161548 33 202 1.6 9.7 0.00 0.00 0.00 50 1013.5
20260902161029 32 0 1.6 12.9 0.00 0.00 0.00 51 1013.5
20260902160529 32 207 3.2 12.9 0.00 0.00 0.00 51 1013.4
20260902160050 32 172 3.2 12.9 0.00 0.00 0.00 51 1013.4
20260902155525 32 167 1.6 9.7 0.00 0.00 0.00 52 1013.4
20260902155029 32 163 3.2 9.7 0.00 0.00 0.00 53 1013.4
20260902154548 32 0 0.0 6.4 0.00 0.00 0.00 53 1013.4
20260902154024 32 268 1.6 8.0 0.00 0.00 0.00 54 1013.3
20260902153526 31 214 1.6 8.0 0.00 0.00 0.00 53 1013.3
20260902153046 31 177 1.6 8.0 0.00 0.00 0.00 54 1013.3
20260902152525 31 179 1.6 9.7 0.00 0.00 0.00 56 1013.3
20260902152029 31 167 3.2 9.7 0.00 0.00 0.00 57 1013.3
20260902151556 30 0 1.6 9.7 0.00 0.00 0.00 59 1013.2
20260902151024 30 0 0.0 9.7 0.00 0.00 0.00 61 1013.2
20260902150526 30 201 3.2 11.3 0.00 0.00 0.00 61 1013.2
20260902150048 29 147 3.2 11.3 0.00 0.00 0.00 62 1013.3
20260902145524 29 135 3.2 11.3 0.00 0.00 0.00 62 1013.1
20260902145026 29 161 3.2 8.0 0.00 0.00 0.00 63 1013.1
20260902144549 28 165 1.6 14.5 0.00 0.00 0.00 64 1013.1
20260902144025 28 0 3.2 14.5 0.00 0.00 0.00 65 1013.1
20260902143524 28 150 3.2 14.5 0.00 0.00 0.00 65 1013.1
20260902143046 28 174 3.2 14.5 0.00 0.00 0.00 66 1013.0
20260902142525 28 142 6.4 14.5 0.00 0.00 0.00 66 1013.0
20260902142027 27 175 3.2 11.3 0.00 0.00 0.00 66 1013.0
20260902141550 27 183 4.8 17.7 0.00 0.00 0.00 67 1013.0
20260902141026 27 144 3.2 17.7 0.00 0.00 0.00 67 1012.8
20260902140525 27 139 8.0 19.3 0.00 0.00 0.00 67 1012.8
20260902140046 27 178 8.0 19.3 0.00 0.00 0.00 67 1012.7
20260902135526 27 151 6.4 17.7 0.00 0.00 0.00 68 1012.6
20260902135024 27 152 4.8 14.5 0.00 0.00 0.00 68 1012.6
20260902134551 27 0 6.4 14.5 0.00 0.00 0.00 68 1012.5
20260902134029 27 129 4.8 12.9 0.00 0.00 0.00 68 1012.5
20260902133526 26 148 4.8 12.9 0.00 0.00 0.00 68 1012.4
20260902133053 26 155 6.4 12.9 0.00 0.00 0.00 68 1012.4
20260902132525 26 176 4.8 12.9 0.00 0.00 0.00 68 1012.3
20260902132028 26 151 3.2 11.3 0.00 0.00 0.00 68 1012.3
20260902131555 26 145 3.2 14.5 0.00 0.00 0.00 68 1012.1
20260902131026 26 163 3.2 14.5 0.00 0.00 0.00 68 1012.1
20260902130526 26 107 3.2 9.7 0.00 0.00 0.00 68 1012.1
20260902130045 26 141 3.2 9.7 0.00 0.00 0.00 68 1012.0
20260902125525 26 103 3.2 16.1 0.00 0.00 0.00 68 1012.0
20260902125028 26 112 3.2 16.1 0.00 0.00 0.00 68 1011.9
20260902124549 26 136 3.2 16.1 0.00 0.00 0.00 68 1011.9
20260902124023 26 153 4.8 16.1 0.00 0.00 0.00 68 1012.0
20260902123526 27 155 6.4 16.1 0.00 0.00 0.00 67 1011.7
20260902123104 27 146 6.4 16.1 0.00 0.00 0.00 67 1011.8
20260902122529 27 149 4.8 16.1 0.00 0.00 0.00 67 1011.8
20260902122025 27 75 4.8 16.1 0.00 0.00 0.00 67 1011.8
20260902121555 27 146 4.8 14.5 0.00 0.00 0.00 67 1011.8
20260902121024 27 148 4.8 14.5 0.00 0.00 0.00 67 1011.8
20260902120527 27 153 3.2 12.9 0.00 0.00 0.00 67 1011.7
20260902120106 27 157 4.8 12.9 0.00 0.00 0.00 66 1011.6
20260902115524 27 137 3.2 11.3 0.00 0.00 0.00 66 1011.6
20260902115025 27 142 3.2 12.9 0.00 0.00 0.00 66 1011.6
20260902114548 27 175 3.2 12.9 0.00 0.00 0.00 66 1011.5
20260902114024 27 136 3.2 9.7 0.00 0.00 0.00 66 1011.5
20260902113524 27 65 3.2 9.7 0.00 0.00 0.00 67 1011.6
20260902113045 27 69 1.6 9.7 0.00 0.00 0.00 67 1011.6
20260902112526 27 97 1.6 9.7 0.00 0.00 0.00 66 1011.6
20260902112026 27 103 3.2 9.7 0.00 0.00 0.00 66 1011.5
20260902111554 27 107 0.0 8.0 0.00 0.00 0.00 66 1011.4
20260902111023 27 107 0.0 11.3 0.00 0.00 0.00 66 1011.5
20260902110523 27 136 3.2 11.3 0.00 0.00 0.00 65 1011.5
20260902110047 27 171 3.2 9.7 0.00 0.00 0.00 65 1011.6
20260902105524 27 150 1.6 6.4 0.00 0.00 0.00 65 1011.5
20260902105024 27 126 1.6 6.4 0.00 0.00 0.00 65 1011.6
20260902104556 27 107 1.6 6.4 0.00 0.00 0.00 65 1011.6
20260902104025 27 94 0.0 4.8 0.00 0.00 0.00 65 1011.6
20260902103525 27 94 1.6 4.8 0.00 0.00 0.00 64 1011.5
20260902103054 27 0 1.6 4.8 0.00 0.00 0.00 64 1011.5
20260902102525 27 94 0.0 4.8 0.00 0.00 0.00 64 1011.5
20260902102024 28 94 1.6 4.8 0.00 0.00 0.00 64 1011.5
20260902101550 28 148 1.6 4.8 0.00 0.00 0.00 64 1011.5
20260902101030 28 148 1.6 4.8 0.00 0.00 0.00 64 1011.6
20260902100524 28 149 1.6 4.8 0.00 0.00 0.00 64 1011.5
20260902095525 28 0 1.6 4.8 0.00 0.00 0.00 63 1011.4
20260902095024 28 0 1.6 4.8 0.00 0.00 0.00 63 1011.5
20260902094545 28 120 1.6 4.8 0.00 0.00 0.00 63 1011.4
20260902094024 28 148 1.6 4.8 0.00 0.00 0.00 63 1011.5
20260902093524 28 148 1.6 4.8 0.00 0.00 0.00 62 1011.4
20260902093050 28 148 1.6 8.0 0.00 0.00 0.00 62 1011.4
20260902092524 28 148 1.6 8.0 0.00 0.00 0.00 62 1011.4
20260902092024 28 148 3.2 8.0 0.00 0.00 0.00 61 1011.4
20260902091552 28 148 3.2 6.4 0.00 0.00 0.00 61 1011.3
20260902091026 28 0 0.0 4.8 0.00 0.00 0.00 61 1011.3
20260902090533 28 148 1.6 4.8 0.00 0.00 0.00 60 1011.3
20260902090047 28 148 1.6 3.2 0.00 0.00 0.00 60 1011.3
20260902085524 29 148 1.6 8.0 0.00 0.00 0.00 60 1011.4
20260902085024 29 148 0.0 8.0 0.00 0.00 0.00 59 1011.4
20260902084547 29 0 1.6 9.7 0.00 0.00 0.00 59 1011.5
20260902084024 29 171 3.2 9.7 0.00 0.00 0.00 59 1011.5
20260902083525 29 139 1.6 8.0 0.00 0.00 0.00 59 1011.6
20260902083108 29 137 1.6 8.0 0.00 0.00 0.00 59 1011.6
20260902082524 30 139 1.6 9.7 0.00 0.00 0.00 59 1011.6
20260902082025 30 139 1.6 9.7 0.00 0.00 0.00 58 1011.7
20260902081550 30 157 3.2 8.0 0.00 0.00 0.00 58 1011.6
20260902081027 30 146 3.2 8.0 0.00 0.00 0.00 58 1011.7
20260902080526 30 155 3.2 8.0 0.00 0.00 0.00 58 1011.7
20260902080050 30 182 1.6 8.0 0.00 0.00 0.00 58 1011.6
20260902075525 30 147 1.6 8.0 0.00 0.00 0.00 57 1011.5
20260902075026 30 148 3.2 8.0 0.00 0.00 0.00 57 1011.5
20260902074552 30 140 3.2 6.4 0.00 0.00 0.00 57 1011.5
20260902074026 30 140 1.6 4.8 0.00 0.00 0.00 57 1011.5
20260902073524 30 118 1.6 4.8 0.00 0.00 0.00 57 1011.5
20260902073041 30 94 1.6 4.8 0.00 0.00 0.00 56 1011.5
20260902072526 31 94 0.0 4.8 0.00 0.00 0.00 56 1011.4
20260902072025 31 94 0.0 4.8 0.00 0.00 0.00 55 1011.4
20260902071547 31 0 1.6 4.8 0.00 0.00 0.00 54 1011.4
20260902071024 31 117 1.6 4.8 0.00 0.00 0.00 53 1011.3
20260902070525 31 117 0.0 4.8 0.00 0.00 0.00 53 1011.1
20260902070049 31 0 0.0 4.8 0.00 0.00 0.00 52 1011.1
20260902065529 31 117 0.0 4.8 0.00 0.00 0.00 52 1011.1
20260902065025 31 0 0.0 3.2 0.00 0.00 0.00 52 1011.1
20260902064546 31 117 1.6 3.2 0.00 0.00 0.00 51 1011.1
20260902064024 31 117 0.0 3.2 0.00 0.00 0.00 51 1011.1
20260902063525 31 117 0.0 3.2 0.00 0.00 0.00 51 1011.0
20260902063057 31 117 0.0 3.2 0.00 0.00 0.00 50 1011.1
20260902062525 31 0 0.0 3.2 0.00 0.00 0.00 51 1011.0
20260902062026 31 117 0.0 4.8 0.00 0.00 0.00 50 1010.9
20260902061549 31 117 0.0 6.4 0.00 0.00 0.00 51 1010.9
20260902061025 31 130 1.6 8.0 0.00 0.00 0.00 51 1011.1
20260902060526 31 171 3.2 8.0 0.00 0.00 0.00 52 1011.1
20260902060047 31 186 1.6 6.4 0.00 0.00 0.00 52 1011.1
20260902055523 31 153 1.6 8.0 0.00 0.00 0.00 52 1011.1
20260902055025 31 177 1.6 8.0 0.00 0.00 0.00 52 1011.3
20260902054551 31 0 3.2 6.4 0.00 0.00 0.00 52 1011.3
20260902054028 31 200 1.6 6.4 0.00 0.00 0.00 53 1011.4
20260902053526 31 187 1.6 6.4 0.00 0.00 0.00 53 1011.3
20260902053049 31 187 1.6 6.4 0.00 0.00 0.00 52 1011.3
20260902052525 31 187 1.6 8.0 0.00 0.00 0.00 52 1011.3
20260902052024 31 188 1.6 8.0 0.00 0.00 0.00 52 1011.2
20260902051547 31 185 1.6 8.0 0.00 0.00 0.00 51 1011.2
20260902051023 31 144 3.2 8.0 0.00 0.00 0.00 51 1011.1
20260902050527 31 140 3.2 8.0 0.00 0.00 0.00 51 1011.0
20260902050058 31 153 3.2 6.4 0.00 0.00 0.00 51 1011.0
20260902045526 31 175 1.6 4.8 0.00 0.00 0.00 50 1011.1
20260902045024 32 158 1.6 4.8 0.00 0.00 0.00 49 1010.9
20260902044552 32 158 0.0 3.2 0.00 0.00 0.00 49 1010.9
20260902044024 32 0 0.0 3.2 0.00 0.00 0.00 49 1010.8
20260902043524 32 158 0.0 4.8 0.00 0.00 0.00 48 1010.8
20260902043051 32 158 1.6 4.8 0.00 0.00 0.00 48 1010.9
20260902042531 32 158 1.6 4.8 0.00 0.00 0.00 47 1010.8
20260902042025 32 158 0.0 4.8 0.00 0.00 0.00 46 1010.8
20260902041544 32 158 0.0 1.6 0.00 0.00 0.00 46 1010.8
20260902041024 32 0 0.0 3.2 0.00 0.00 0.00 46 1010.7
20260902040523 32 0 0.0 3.2 0.00 0.00 0.00 45 1010.7
20260902040058 32 158 0.0 3.2 0.00 0.00 0.00 45 1010.6
20260902035524 32 158 0.0 3.2 0.00 0.00 0.00 44 1010.4
20260902035023 32 158 0.0 3.2 0.00 0.00 0.00 44 1010.4
20260902034549 32 158 0.0 3.2 0.00 0.00 0.00 44 1010.4
20260902034025 32 158 1.6 3.2 0.00 0.00 0.00 44 1010.3
20260902033524 32 158 0.0 3.2 0.00 0.00 0.00 43 1010.2
20260902033051 33 0 1.6 3.2 0.00 0.00 0.00 43 1010.0
20260902032523 33 219 0.0 3.2 0.00 0.00 0.00 42 1009.9
20260902032025 33 219 0.0 3.2 0.00 0.00 0.00 41 1009.8
20260902031555 33 0 0.0 3.2 0.00 0.00 0.00 41 1009.8
20260902031029 33 219 0.0 3.2 0.00 0.00 0.00 40 1009.7
20260902030525 33 219 0.0 3.2 0.00 0.00 0.00 40 1009.6
20260902030043 33 219 0.0 1.6 0.00 0.00 0.00 39 1009.6
20260902025526 33 0 0.0 1.6 0.00 0.00 0.00 39 1009.5
20260902025026 33 0 0.0 1.6 0.00 0.00 0.00 39 1009.6
20260902024556 33 221 0.0 1.6 0.00 0.00 0.00 39 1009.6
20260902024023 34 0 0.0 0.0 0.00 0.00 0.00 39 1009.4
20260902023523 34 0 0.0 3.2 0.00 0.00 0.00 39 1009.5
20260902023046 34 0 0.0 3.2 0.00 0.00 0.00 38 1009.4
20260902022525 34 0 0.0 3.2 0.00 0.00 0.00 38 1009.4
20260902022024 34 220 0.0 1.6 0.00 0.00 0.00 38 1009.3
20260902021558 35 220 0.0 3.2 0.00 0.00 0.00 37 1009.2
20260902021025 35 0 0.0 3.2 0.00 0.00 0.00 37 1009.2
20260902020526 35 217 0.0 3.2 0.00 0.00 0.00 37 1009.2
20260902020049 35 240 0.0 3.2 0.00 0.00 0.00 36 1009.3
20260902015524 35 0 0.0 4.8 0.00 0.00 0.00 36 1009.1
20260902015024 35 0 0.0 4.8 0.00 0.00 0.00 36 1009.1
20260902014550 35 315 1.6 4.8 0.00 0.00 0.00 36 1009.1
20260902014024 35 0 0.0 4.8 0.00 0.00 0.00 36 1009.1
20260902013523 35 314 0.0 4.8 0.00 0.00 0.00 36 1009.1
20260902013049 35 0 1.6 6.4 0.00 0.00 0.00 36 1009.1
20260902012524 35 0 1.6 8.0 0.00 0.00 0.00 36 1009.2
20260902012025 35 306 1.6 8.0 0.00 0.00 0.00 36 1009.3
20260902011549 35 308 1.6 8.0 0.00 0.00 0.00 36 1009.4
20260902011029 35 0 3.2 8.0 0.00 0.00 0.00 35 1009.4
20260902010525 36 286 3.2 9.7 0.00 0.00 0.00 35 1009.5
20260902010047 36 307 3.2 14.5 0.00 0.00 0.00 35 1009.6
20260902005526 36 300 4.8 14.5 0.00 0.00 0.00 35 1009.4
20260902005025 36 246 1.6 9.7 0.00 0.00 0.00 35 1009.5
20260902004547 36 331 0.0 4.8 0.00 0.00 0.00 34 1009.5
20260902004024 36 5 0.0 8.0 0.00 0.00 0.00 34 1009.6
20260902003525 36 63 1.6 11.3 0.00 0.00 0.00 34 1009.7
20260902003054 36 330 3.2 12.9 0.00 0.00 0.00 35 1009.7
20260902002525 36 297 3.2 12.9 0.00 0.00 0.00 35 1009.7
20260902002027 36 325 3.2 12.9 0.00 0.00 0.00 34 1009.8
20260902001554 36 250 3.2 11.3 0.00 0.00 0.00 35 1009.7
20260902001026 37 263 4.8 11.3 0.00 0.00 0.00 35 1009.8
20260902000527 36 296 1.6 14.5 0.00 0.00 0.00 36 1009.8
20260902000047 36 302 4.8 14.5 0.00 0.00 0.00 36 1009.7
20260901235525 36 235 6.4 14.5 0.00 0.00 0.00 36 1009.8
20260901235025 36 333 1.6 9.7 0.00 0.00 0.00 37 1009.8
20260901234548 36 0 1.6 14.5 0.00 0.00 0.00 37 1009.8
20260901234028 37 264 4.8 16.1 0.00 0.00 0.00 37 1009.9
20260901233524 37 271 4.8 16.1 0.00 0.00 0.00 36 1010.0
20260901233053 37 211 6.4 16.1 0.00 0.00 0.00 36 1009.9
20260901232528 36 279 4.8 14.5 0.00 0.00 0.00 35 1010.0
20260901232027 37 315 4.8 12.9 0.00 0.00 0.00 35 1010.0
20260901231550 37 0 0.0 12.9 0.00 0.00 0.00 35 1010.1
20260901231024 37 297 3.2 12.9 0.00 0.00 0.00 35 1010.1
20260901230526 37 192 3.2 9.7 0.00 0.00 0.00 36 1010.2
20260901225524 37 302 1.6 11.3 0.00 0.00 0.00 37 1010.2
20260901225025 37 249 1.6 6.4 0.00 0.00 0.00 36 1010.2
20260901224548 37 275 1.6 11.3 0.00 0.00 0.00 37 1010.3
20260901224029 37 232 3.2 11.3 0.00 0.00 0.00 38 1010.3
20260901223524 37 0 3.2 11.3 0.00 0.00 0.00 37 1010.4
20260901223102 37 302 1.6 9.7 0.00 0.00 0.00 38 1010.4
20260901222522 37 173 1.6 11.3 0.00 0.00 0.00 37 1010.5
20260901222024 37 182 0.0 11.3 0.00 0.00 0.00 38 1010.5
20260901221547 37 157 3.2 14.5 0.00 0.00 0.00 37 1010.6
20260901221026 37 205 1.6 14.5 0.00 0.00 0.00 38 1010.7
20260901220530 37 215 4.8 16.1 0.00 0.00 0.00 38 1010.7
20260901220126 37 250 3.2 16.1 0.00 0.00 0.00 38 1010.7
20260901215524 37 155 1.6 11.3 0.00 0.00 0.00 39 1010.8
20260901215027 37 180 3.2 11.3 0.00 0.00 0.00 39 1010.9
20260901214554 37 167 3.2 12.9 0.00 0.00 0.00 38 1011.1
20260901214024 37 0 3.2 16.1 0.00 0.00 0.00 39 1011.1
20260901213525 37 0 3.2 16.1 0.00 0.00 0.00 39 1011.2
20260901213052 36 213 6.4 14.5 0.00 0.00 0.00 40 1011.3
20260901212524 36 156 1.6 14.5 0.00 0.00 0.00 39 1011.3
20260901212025 36 104 3.2 16.1 0.00 0.00 0.00 40 1011.4
20260901211548 36 155 3.2 16.1 0.00 0.00 0.00 40 1011.6
20260901211023 36 105 3.2 16.1 0.00 0.00 0.00 40 1011.6
20260901210524 36 146 3.2 16.1 0.00 0.00 0.00 41 1011.7
20260901210048 36 162 3.2 14.5 0.00 0.00 0.00 40 1011.8
20260901205524 36 0 3.2 17.7 0.00 0.00 0.00 40 1012.0
20260901205025 36 304 4.8 17.7 0.00 0.00 0.00 40 1012.0
20260901204551 36 0 1.6 16.1 0.00 0.00 0.00 41 1012.1
20260901204026 36 238 3.2 17.7 0.00 0.00 0.00 41 1012.1
20260901203526 36 157 6.4 17.7 0.00 0.00 0.00 41 1012.2
20260901203053 36 286 3.2 12.9 0.00 0.00 0.00 40 1012.3
20260901202526 36 346 3.2 11.3 0.00 0.00 0.00 42 1012.4
20260901202026 36 0 1.6 12.9 0.00 0.00 0.00 43 1012.4
20260901201553 35 232 1.6 12.9 0.00 0.00 0.00 44 1012.3
20260901201026 35 309 1.6 8.0 0.00 0.00 0.00 45 1012.5
20260901200526 35 60 3.2 12.9 0.00 0.00 0.00 44 1012.6
20260901200051 35 308 3.2 12.9 0.00 0.00 0.00 44 1012.6
20260901195525 35 306 3.2 11.3 0.00 0.00 0.00 44 1012.7
20260901195028 35 304 1.6 8.0 0.00 0.00 0.00 43 1012.7
20260901194554 35 0 0.0 9.7 0.00 0.00 0.00 45 1012.8
20260901194025 35 82 1.6 9.7 0.00 0.00 0.00 45 1012.8
20260901193524 34 61 1.6 6.4 0.00 0.00 0.00 45 1012.9
20260901193049 33 119 0.0 9.7 0.00 0.00 0.00 47 1013.0
20260901192525 33 0 0.0 14.5 0.00 0.00 0.00 47 1013.1